📊 Raw Sensor Data

Showing records 33351 to 33375 of 84,767 total

ID Distance (ft) Battery V Battery A Int Temp (°F) Int Humid (%) Ext Temp (°F) Solar V RSSI SNR Time Stamp
51429 14.9 4.00 5 91 47 81 5.10 -75 8 09/08/2025 04:30 PM
51428 15.0 4.02 5 95 44 85 5.10 -75 8 09/08/2025 04:15 PM
51427 14.9 4.00 0 94 45 83 5.10 -73 8 09/08/2025 04:00 PM
51426 15.0 4.00 5 96 43 83 5.10 -73 7 09/08/2025 03:45 PM
51425 14.9 4.00 0 95 43 84 5.10 -72 8 09/08/2025 03:30 PM
51424 15.0 4.00 5 95 42 84 5.10 -73 8 09/08/2025 03:15 PM
51423 14.2 4.00 0 94 41 83 5.10 -74 7 09/08/2025 02:45 PM
51422 15.0 4.00 0 93 42 81 5.10 -74 7 09/08/2025 02:30 PM
51421 15.0 4.13 5 93 41 82 5.10 -74 7 09/08/2025 02:15 PM
51420 15.0 4.00 5 92 41 83 5.10 -66 8 09/08/2025 02:00 PM
51419 15.0 4.00 5 91 41 80 5.10 -68 7 09/08/2025 01:45 PM
51418 15.0 4.00 5 89 41 82 5.10 -67 8 09/08/2025 01:30 PM
51417 14.9 4.10 5 87 42 81 5.10 -67 8 09/08/2025 01:15 PM
51416 15.0 4.00 0 86 42 78 5.10 -66 8 09/08/2025 01:00 PM
51415 15.0 4.00 5 85 42 78 5.10 -74 7 09/08/2025 12:45 PM
51414 14.9 4.11 0 84 42 79 5.10 -74 7 09/08/2025 12:15 PM
51413 14.9 4.01 5 83 42 79 5.10 -73 8 09/08/2025 12:00 PM
51412 15.0 4.00 0 82 43 77 5.10 -74 7 09/08/2025 11:45 AM
51411 15.0 4.00 5 83 42 78 5.10 -74 7 09/08/2025 11:30 AM
51410 15.0 4.00 0 83 41 81 5.10 -72 7 09/08/2025 11:15 AM
51409 15.0 4.00 0 82 41 81 5.10 -74 8 09/08/2025 11:00 AM
51408 15.0 4.00 5 80 41 80 5.10 -73 8 09/08/2025 10:45 AM
51407 15.0 4.00 0 79 41 79 5.10 -73 8 09/08/2025 10:30 AM
51406 15.1 4.12 6 78 41 79 5.10 -73 7 09/08/2025 10:15 AM
51405 15.1 4.09 6 75 41 78 5.10 -72 7 09/08/2025 09:45 AM